Starlink 33944

operational
NORAD ID: 64209 Int'l Des: 2025-117 Owner: SPXS Country: US Constellation: starlink
LEOCIRCULAR

Starlink 33944について

説明を読み込み中...

リアルタイム位置

3D地球を読み込み中...

次回通過

高度履歴

Altitude vs Time

uPlot chart will show altitude changes over time

軌道要素

1 64209U 25117G 26061.01931722 .00016762 00000-0 57667-3 0 9993
2 64209 53.1617 75.0768 0001335 100.1521 259.9631 15.30206546 43386
Epoch: Mar 2, 2026 • Age: 31 hours

現在のステータス

高度 491.4 km
速度 7.62 km/s
衛星直下点 -46.02°S, 28.95°E
打ち上げ日 May 31, 2025
運用期間 0.7 years
タイプ internet

技術仕様

分類 Payload
質量 575.00 kg
乾燥質量 530.00 kg
総質量 575.00 kg
長さ 0.30 m
直径 4.10 m
スパン 29.00 m
形状 Box + pan
製造者 SPXS
バスタイプ Starlink V2MO
フェーズステータス In Orbit
所有者/国 SPXS/US

大規模コンステレーション

Loading constellations...